Location: Arrodets-la-Barthe
(43.0306°N, 0.2829°E)
Time: 13:52:14
(UTC+00:00)

STARLINK-5243 - Pass Details

Date: 27 November 2022
Orbit: 539 x 540 km, 53.2° (Epoch: 02 February)

Event Time Altitude Azimuth Distance (km) Brightness Sun altitude
Exits shadow 04:03:42 16° 115° (ESE) 1,416 ? -32.8°
Drops below altitude 10° 04:04:37 10° 118° (ESE) 1,773 ? -32.6°
Enters shadow 05:05:09 -61° 317° (NW) 11,812 ? -21.6°
